Stations météo

Publicité
Noervenich/Flugplatz, Allemagne (10502): Température de l'air & dewpoint: 16.09.2018 16:00:00 - 22.09.2018 16:00:00 (CEST)Noervenich/Flugplatz, Allemagne (10502): Vitesse du vent & gusts: 16.09.2018 16:00:00 - 22.09.2018 16:00:00 (CEST)Noervenich/Flugplatz, Allemagne (10502): Direction du vent: 16.09.2018 16:00:00 - 22.09.2018 16:00:00 (CEST)Noervenich/Flugplatz, Allemagne (10502): reduced air pressure: 16.09.2018 16:00:00 - 22.09.2018 16:00:00 (CEST)Noervenich/Flugplatz, Allemagne (10502): visibility: 16.09.2018 16:00:00 - 22.09.2018 16:00:00 (CEST)
Date & Time tt [°C] td [°C] ff [km/h] ff [knt] fx [km/h] fx [knt] dd ppp [hPa] vv [km]
22.09.2018 16:00:00 11,6 9,7 25 14 47 25 WNW 1020,8 6
22.09.2018 15:00:00 16,3 4,8 25 14 - - W 1020,0 13
22.09.2018 14:00:00 16,9 5,5 22 12 - - W 1019,8 12
22.09.2018 13:00:00 16,5 6,0 25 14 - - W 1020,1 12
22.09.2018 12:00:00 16,0 6,7 22 12 - - W 1020,8 10
22.09.2018 11:00:00 14,3 6,3 18 10 - - WSW 1021,6 12
22.09.2018 10:00:00 12,8 6,8 14 8 - - WSW 1021,6 12
22.09.2018 09:00:00 11,5 6,6 11 6 - - SW 1021,1 9
22.09.2018 08:00:00 10,9 6,3 14 8 - - SW 1021,5 9
22.09.2018 07:00:00 11,1 6,3 14 8 - - WSW 1020,7 9
22.09.2018 06:00:00 11,3 6,1 18 10 - - WSW 1020,4 10
22.09.2018 05:00:00 11,5 6,2 22 12 - - W 1020,0 10
22.09.2018 04:00:00 11,8 6,1 22 12 - - W 1019,7 11
22.09.2018 03:00:00 12,0 6,1 29 16 47 25 W 1019,1 11
22.09.2018 02:00:00 12,6 5,8 25 14 - - W 1018,3 11
22.09.2018 01:00:00 13,0 5,3 29 16 50 27 W 1017,5 11
22.09.2018 00:00:00 13,2 5,0 36 19 54 29 WSW 1016,7 11
21.09.2018 23:00:00 13,4 4,6 25 14 - - WSW 1016,1 12
21.09.2018 22:00:00 13,8 4,1 25 14 54 29 WSW 1015,6 11
21.09.2018 21:00:00 14,3 3,5 36 19 50 27 W 1014,3 12
21.09.2018 20:00:00 14,4 4,0 32 18 - - W 1013,4 25
21.09.2018 19:00:00 15,7 2,2 36 19 58 31 W 1012,4 25
21.09.2018 18:00:00 16,1 3,8 40 21 61 33 W 1012,0 25
21.09.2018 17:00:00 16,3 3,6 43 23 - - W 1011,5 25
21.09.2018 16:00:00 15,4 7,5 32 18 54 29 W 1011,0 20
21.09.2018 15:00:00 15,4 8,8 32 18 68 37 W 1010,1 20
21.09.2018 14:00:00 16,8 10,7 32 18 - - W 1008,6 15
21.09.2018 13:00:00 14,3 9,6 29 16 58 31 W 1008,6 20
21.09.2018 12:00:00 13,6 11,2 29 16 83 45 W 1008,4 15
21.09.2018 11:00:00 19,6 13,3 39 21 - - W 1006,3 4,0
21.09.2018 10:00:00 21,1 10,4 18 10 - - SW 1004,7 30
21.09.2018 09:00:00 21,4 10,3 22 12 47 25 SW 1005,0 30
21.09.2018 08:00:00 21,0 12,7 22 12 - - SSW 1005,1 30
21.09.2018 07:00:00 22,0 12,7 18 10 - - SSW 1005,3 30
21.09.2018 06:00:00 22,2 11,7 18 10 - - SSW 1005,6 30
21.09.2018 05:00:00 21,9 10,5 14 8 - - SSW 1006,9 30
21.09.2018 04:00:00 17,5 11,2 7 4 - - S 1008,2 30
21.09.2018 03:00:00 18,3 11,5 7 4 - - SE 1009,0 30
21.09.2018 02:00:00 18,6 11,1 7 4 - - SE 1009,6 30
21.09.2018 01:00:00 18,7 10,6 7 4 - - N 1010,1 30
21.09.2018 00:00:00 17,0 9,6 4 2 - - N 1011,1 30
20.09.2018 23:00:00 19,5 9,8 4 2 - - N 1011,7 30
20.09.2018 22:00:00 20,5 9,2 7 4 - - S 1012,3 30
20.09.2018 21:00:00 21,4 8,5 7 4 - - SSE 1012,6 30
20.09.2018 20:00:00 24,0 7,8 11 6 - - SSW 1013,0 30
20.09.2018 19:00:00 25,5 8,1 11 6 - - SW 1013,1 30
20.09.2018 18:00:00 26,8 8,6 18 10 - - SW 1013,5 30
20.09.2018 17:00:00 27,0 9,0 18 10 - - WSW 1014,3 30
20.09.2018 16:00:00 26,3 9,3 18 10 - - W 1015,2 30
20.09.2018 15:00:00 26,1 10,3 14 8 - - SW 1015,9 30
20.09.2018 14:00:00 25,3 10,9 18 10 - - SW 1016,6 30
20.09.2018 13:00:00 24,2 11,6 18 10 - - SW 1017,2 30
20.09.2018 12:00:00 23,5 11,7 18 10 - - WSW 1017,7 30
20.09.2018 11:00:00 21,9 12,3 11 6 - - SSW 1018,2 30
20.09.2018 10:00:00 19,7 12,1 14 8 - - SSW 1018,2 30
20.09.2018 09:00:00 17,4 11,8 11 6 - - SSW 1018,5 30
20.09.2018 08:00:00 15,5 11,5 14 8 - - SSW 1018,3 30
20.09.2018 07:00:00 15,5 11,4 7 4 - - SSW 1018,4 30
20.09.2018 06:00:00 16,0 11,3 14 8 - - SSW 1018,3 30
20.09.2018 05:00:00 16,5 11,5 14 8 - - SSW 1018,6 30
20.09.2018 04:00:00 16,2 11,4 14 8 - - SSW 1018,4 30
20.09.2018 03:00:00 16,3 11,4 11 6 - - S 1018,4 30
20.09.2018 02:00:00 17,6 11,5 7 4 - - N 1018,7 30
20.09.2018 01:00:00 18,3 11,7 11 6 - - SSW 1019,2 30
20.09.2018 00:00:00 18,9 11,8 11 6 - - WSW 1019,4 30
19.09.2018 23:00:00 17,9 11,3 11 6 - - WNW 1019,1 30
19.09.2018 22:00:00 20,2 11,8 7 4 - - W 1018,6 30
19.09.2018 21:00:00 21,7 12,1 14 8 - - W 1018,0 30
19.09.2018 20:00:00 24,3 12,0 14 8 - - WSW 1017,1 30
19.09.2018 19:00:00 26,6 12,3 18 10 - - SW 1016,4 30
19.09.2018 18:00:00 27,5 12,3 22 12 - - SW 1015,9 30
19.09.2018 17:00:00 27,8 12,2 29 16 - - WSW 1015,9 30
19.09.2018 16:00:00 27,3 12,5 22 12 - - WSW 1016,2 30
19.09.2018 15:00:00 27,2 12,8 22 12 - - WSW 1016,6 30
19.09.2018 14:00:00 27,2 13,7 22 12 - - SW 1016,9 30
19.09.2018 13:00:00 26,3 13,8 22 12 - - SW 1017,0 30
19.09.2018 12:00:00 25,6 14,0 25 14 - - SW 1017,3 30
19.09.2018 11:00:00 23,8 14,6 18 10 - - SSW 1017,8 10
19.09.2018 10:00:00 21,0 14,4 14 8 - - S 1017,7 20
19.09.2018 09:00:00 17,4 13,2 11 6 - - S 1017,8 20
19.09.2018 08:00:00 15,9 13,1 7 4 - - N 1018,0 20
19.09.2018 07:00:00 16,4 13,0 4 2 - - N 1018,0 30
19.09.2018 06:00:00 16,0 12,7 7 4 - - S 1017,8 40
19.09.2018 05:00:00 16,1 12,3 7 4 - - S 1017,9 40
19.09.2018 04:00:00 15,9 12,3 7 4 - - WSW 1017,8 40
19.09.2018 03:00:00 17,1 12,3 7 4 - - W 1017,7 40
19.09.2018 02:00:00 17,6 12,2 11 6 - - WNW 1017,3 40
19.09.2018 01:00:00 19,4 12,2 7 4 - - W 1016,9 40
19.09.2018 00:00:00 19,6 11,9 7 4 - - W 1016,6 40
18.09.2018 23:00:00 20,8 11,6 7 4 - - W 1016,1 40
18.09.2018 22:00:00 21,9 11,0 11 6 - - W 1015,7 40
18.09.2018 21:00:00 22,3 10,7 11 6 - - W 1015,3 40
18.09.2018 20:00:00 25,8 10,8 18 10 - - SW 1013,9 40
18.09.2018 19:00:00 28,0 9,8 22 12 - - SW 1012,7 40
18.09.2018 18:00:00 29,5 9,7 22 12 - - SW 1012,4 40
18.09.2018 17:00:00 30,3 9,2 32 18 - - WSW 1011,8 40
18.09.2018 16:00:00 32,0 7,5 32 18 47 25 W 1011,3 40
18.09.2018 15:00:00 31,5 9,4 22 12 - - W 1011,4 40
18.09.2018 14:00:00 30,2 10,2 18 10 - - WSW 1011,8 40
18.09.2018 13:00:00 29,3 12,1 22 12 - - SW 1012,2 40
18.09.2018 12:00:00 28,8 13,7 22 12 - - SW 1012,4 40
18.09.2018 11:00:00 26,8 10,5 14 8 - - S 1012,4 40
18.09.2018 10:00:00 23,9 10,1 18 10 - - S 1012,6 40
18.09.2018 09:00:00 21,0 9,4 14 8 - - SSE 1012,7 40
18.09.2018 08:00:00 19,0 8,7 18 10 - - SSE 1012,9 40
18.09.2018 07:00:00 19,0 8,4 18 10 - - SSE 1012,9 40
18.09.2018 06:00:00 17,7 8,9 14 8 - - S 1013,2 40
18.09.2018 05:00:00 15,9 7,7 11 6 - - SE 1013,6 30
18.09.2018 04:00:00 16,1 7,0 11 6 - - SSE 1014,0 30
18.09.2018 03:00:00 15,9 6,7 11 6 - - SSE 1014,3 30
18.09.2018 02:00:00 16,0 6,7 11 6 - - S 1014,6 30
18.09.2018 01:00:00 16,5 6,2 7 4 - - SSE 1015,1 30
18.09.2018 00:00:00 16,4 5,5 7 4 - - SSE 1015,4 30
17.09.2018 23:00:00 17,0 5,6 7 4 - - S 1015,8 30
17.09.2018 22:00:00 19,5 4,8 7 4 - - S 1015,7 30
17.09.2018 21:00:00 20,8 4,2 7 4 - - S 1015,7 30
17.09.2018 20:00:00 22,6 6,2 4 2 - - N 1015,6 40
17.09.2018 19:00:00 25,7 7,5 7 4 - - E 1015,5 40
17.09.2018 18:00:00 26,3 6,7 11 6 - - E 1015,9 40
17.09.2018 17:00:00 27,9 5,2 11 6 - - ESE 1016,2 40
17.09.2018 16:00:00 27,2 5,6 7 4 - - E 1017,2 40
17.09.2018 15:00:00 26,1 5,2 7 4 - - NNE 1017,8 40
17.09.2018 14:00:00 25,3 4,8 7 4 - - N 1018,4 40
17.09.2018 13:00:00 24,1 6,8 11 6 - - S 1019,1 40
17.09.2018 12:00:00 22,4 8,3 7 4 - - SE 1019,7 40
17.09.2018 11:00:00 19,9 8,8 7 4 - - N 1020,3 40
17.09.2018 10:00:00 16,5 8,7 7 4 - - N 1020,7 40
17.09.2018 09:00:00 11,9 7,4 4 2 - - N 1020,9 40
17.09.2018 08:00:00 8,6 6,2 7 4 - - N 1020,7 40
17.09.2018 07:00:00 8,3 6,0 4 2 - - N 1020,6 40
17.09.2018 06:00:00 9,6 7,0 0 0 - - N 1020,5 40
17.09.2018 05:00:00 10,2 6,9 7 4 - - N 1020,3 40
17.09.2018 04:00:00 10,0 7,0 0 0 - - N 1020,6 40
17.09.2018 03:00:00 10,3 7,1 0 0 - - N 1020,5 40
17.09.2018 02:00:00 11,5 7,4 0 0 - - N 1020,2 40
17.09.2018 01:00:00 11,9 7,2 0 0 - - N 1020,4 40
17.09.2018 00:00:00 14,1 7,7 4 2 - - N 1020,3 40
16.09.2018 23:00:00 16,0 8,4 4 2 - - N 1020,1 40
16.09.2018 22:00:00 15,1 7,9 7 4 - - W 1020,1 40
16.09.2018 21:00:00 17,4 7,9 7 4 - - N 1019,7 40
16.09.2018 20:00:00 20,0 7,2 0 0 - - N 1019,4 40
16.09.2018 19:00:00 23,0 7,3 11 6 - - E 1019,1 40
16.09.2018 18:00:00 23,4 7,0 11 6 - - ESE 1018,9 40
16.09.2018 17:00:00 24,2 6,4 7 4 - - SE 1019,4 40
16.09.2018 16:00:00 24,3 5,8 7 4 - - SE 1020,1 40

tt = Température de l'air
td = dewpoint
ff = Vitesse du vent
fx = gusts
dd = Direction du vent
ppp = reduced air pressure
vv = visibility

stations d'obs. à proximité